Location: Sankt Anna
(58.3452°N, 16.7040°E)
Time: 12:38:06
(UTC+02:00)

DX 1 - Pass Details

Date: 25 May 2019
Orbit: 620 x 630 km, 98.4° (Epoch: 18 June)

Event Time Altitude Azimuth Distance (km) Brightness Sun altitude
Rises 01:24:44 0° 98° (E) 2,918 ? -10.5°
Reaches altitude 10° 01:27:58 10° 72° (ENE) 2,017 ? -10.4°
Maximum altitude 01:30:02 13° 43° (NE) 1,808 ? -10.4°
Drops below altitude 10° 01:32:07 10° 15° (NNE) 2,024 ? -10.3°
Sets 01:35:22 0° 349° (N) 2,938 ? -10.2°
